Meteo Giornale » Osservazioni meteo Gran Bretagna » Tain Range
ore: 18:20 - Osservazioni Meteo Tain Range
Lat. 57° 49' N Lon. 3° 58' W Alt. 4 metri s.l.m.
14 °C
Molto Nuvoloso
Temp. 24 Ore
11 °C
17 °C
Ovest/Nord-Ovest
24 Km/h
Dew point 9 °C
Umidità 71 %
Visibilità 10 Km
Il sole sorge alle ore 06:14
Il sole tramonta alle ore 20:17
| Data e Ora | Cielo e Fenomeni | T °C | DP °C | Um. % | Pres. hPa | Vis. km | Vento km/h | |
|---|---|---|---|---|---|---|---|---|
| Oggi h: 18:20 | Molto Nuvoloso | 14 | 9 | 71 | 1010 | 10 | O/NO 24 | |
| Oggi h: 17:50 | Molto Nuvoloso | 15 | 9 | 67 | 1010 | 10 | O/NO 25.9 | |
| Oggi h: 17:20 | Poco Nuvoloso | 14 | 10 | 76 | 1009 | 10 | O/NO 27.8 | |
| Oggi h: 16:50 | Poco Nuvoloso | 15 | 11 | 76 | 1009 | 10 | O/NO 35.2 | |
| Oggi h: 16:20 | Molto Nuvoloso | 15 | 11 | 76 | 1009 | 10 | O/NO 31.5 | |
| Oggi h: 15:50 | Coperto | 16 | 12 | 77 | 1008 | 10 | O/NO 35.2 | |
| Oggi h: 15:20 | Molto Nuvoloso | 16 | 12 | 77 | 1008 | 10 | O/NO 31.5 | |
| Oggi h: 14:50 | Coperto | 16 | 12 | 77 | 1007 | 10 | O/NO 31.5 | |
| Oggi h: 14:20 | Coperto | 17 | 12 | 72 | 1007 | 10 | O/NO 24 | |
| Oggi h: 13:50 | Coperto | 16 | 13 | 82 | 1007 | 10 | O/NO 24 | |
| Oggi h: 13:20 | Coperto | 16 | 13 | 82 | 1006 | 10 | O 16.7 | |
| Oggi h: 12:50 | Coperto | 16 | 14 | 87 | 1006 | 10 | O 16.7 | |
| Oggi h: 12:20 | Pioggia | 15 | 14 | 93 | 1006 | 3 | SO 9.3 | |
| Oggi h: 11:50 | Molto Nuvoloso | 17 | 13 | 77 | 1005 | 10 | N 3.7 | |
| Oggi h: 11:20 | Molto Nuvoloso | 17 | 13 | 77 | 1005 | 10 | O 9.3 | |
| Oggi h: 10:50 | Molto Nuvoloso | 17 | 14 | 82 | 1005 | 10 | O 13 | |
| Oggi h: 10:20 | Coperto | 16 | 14 | 87 | 1005 | 10 | O/NO 11.1 | |
| Oggi h: 09:50 | Molto Nuvoloso | 16 | 13 | 82 | 1004 | 10 | O/NO 11.1 | |
| Oggi h: 09:20 | Coperto | 16 | 14 | 87 | 1004 | 10 | N 5.5 | |
| Oggi h: 08:50 | Nuvoloso | 15 | 14 | 93 | 1004 | 10 | N 5.5 | |
| Oggi h: 08:20 | Coperto | 15 | 14 | 93 | 1004 | 10 | N 5.5 | |
| Oggi h: 07:50 | Molto Nuvoloso | 14 | 14 | 100 | 1004 | 10 | O/SO 9.3 | |
| Oggi h: 07:20 | Foschia | 12 | 12 | 100 | 1004 | 10 | O/SO 9.3 | |
| Oggi h: 06:50 | Foschia | 12 | 12 | 100 | 1003 | 5 | N 5.5 | |
| Oggi h: 06:20 | Molto Nuvoloso | 13 | 13 | 100 | 1003 | 10 | N 3.7 | |
| Oggi h: 05:50 | Coperto | 13 | 13 | 100 | 1003 | 10 | O 11.1 | |
| Oggi h: 05:20 | Coperto | 13 | 13 | 100 | 1003 | 10 | O 7.4 | |
| Oggi h: 04:50 | Foschia | 13 | 13 | 100 | 1003 | 10 | N 5.5 | |
| Oggi h: 04:20 | Molto Nuvoloso | 12 | 12 | 100 | 1002 | 7 | O/NO 9.3 | |
| Oggi h: 03:50 | Molto Nuvoloso | 12 | 12 | 100 | 1002 | 7 | N 5.5 | |
| Oggi h: 03:20 | Molto Nuvoloso | 12 | 12 | 100 | 1002 | 1 | N 5.5 | |
| Oggi h: 02:50 | Nebbia | 12 | 12 | 100 | 1002 | 4 | N 3.7 | |
| Oggi h: 02:20 | Nebbia | 11 | 11 | 100 | 1003 | 1 | N 3.7 | |
| Oggi h: 01:50 | Molto Nuvoloso | 13 | 13 | 100 | 1003 | 10 | N 5.5 | |
| Oggi h: 01:20 | Coperto | 14 | 13 | 93 | 1002 | 10 | E 9.3 | |
| Oggi h: 00:50 | Pioviggine | 14 | 13 | 93 | 1002 | 10 | E 9.3 | |
| Oggi h: 00:20 | Pioggia | 14 | 13 | 93 | 1003 | 3 | E 14.8 | |
| Ieri h: 23:50 | Molto Nuvoloso | 14 | 13 | 93 | 1003 | 10 | E 14.8 | |
| Ieri h: 23:20 | Molto Nuvoloso | 14 | 13 | 93 | 1003 | 10 | E 16.7 | |
| Ieri h: 22:50 | Coperto | 14 | 13 | 93 | 1003 | 10 | E 16.7 | |
| Ieri h: 22:20 | Molto Nuvoloso | 14 | 13 | 93 | 1003 | 10 | E 16.7 | |
| Ieri h: 21:50 | Pioggia | 14 | 13 | 93 | 1003 | 5 | E 16.7 | |
| Ieri h: 21:20 | Pioviggine | 14 | 13 | 93 | 1003 | 10 | E 14.8 | |
| Ieri h: 20:50 | Pioggia | 14 | 14 | 100 | 1003 | 10 | E 16.7 | |
| Ieri h: 20:20 | Pioggia | 14 | 14 | 100 | 1003 | 5 | E 16.7 | |
| Ieri h: 19:50 | Pioggia | 15 | 14 | 93 | 1003 | 7 | E 16.7 | |



